Погода в Тобольске

Хотите узнать прогноз погоды в Тобольске? Тогда Вам сюда: Погода в Тобольске

Поиск расширенной информации на нашем сайте:

Полезная информация:

Новости сайта



02.01.2020
Опубликован Долгосрочный прогноз погоды по городам России и ближнего зарубежья на январь 2020 года.
Карты: Прогноз на январь и февраль 2020 года, Сравнение прогнозируемой аномалии приземной температуры воздуха на январь 2020 года по разным моделям.




Погода в Тобольске - сегодня

Время (UTC), дата Ветер
(°,м/с) 
Видим.   Явления Облачность Т
(°С)
Тd
(°С)
f(%) Тe
(°С)
Pmin
(гПа)
dP
(гПа)
Po
(мм)
O2
(г/м3)
Тmin Tmax R s Состояние
почвы
21 22.10.20 290 (З) 4000 м  слаб. снег{ливн. осадки}  10/4 600 м средняя 
[Sc|As op]
-2 -3.3 91 -1  1006.2  750  305           
00 23.10.20 330 (СЗ) 4000 м  слаб. снег{ливн. осадки}  10/10 600 м 
[Ns]
+1.8 -3.5 68 1007.3  1.1  751  301           
03 23.10.20 330 (СЗ) 5-10{10}  4000 м  слаб. снег{морось}  10/10 300 м 
[Ns]
-3.8 -5.7 87 -7  1009.9  2.5  753  308  -3.8    равномерный
сухой снег
100% 
06 23.10.20 300 (СЗ) 3{10}  10 км  слаб. ливневой снег  10/10 600 м кучево-дожд. 
[Cb cap]
-4.6 -7.5 80 -7  1012.3  2.4  755  310  -4.6         
09 23.10.20 320 (СЗ) 10 км  слаб. ливневой снег  10/10 600 м кучево-дожд. 
[Cb cap]
-4.4 -9.2 69 -7  1014  1.7  756  310           
12 23.10.20 310 (СЗ) 10 км  слаб. ливневой снег  10/8 600 м кучево-дожд., средняя 
[Cb cap|Ac und]
-4.4 -8.4 74 -6  1016  757  311           
15 23.10.20 280 (З) 4000 м  слаб. ливневой снег  10/10 600 м кучево-дожд. 
[Cb cap]
-4.2 -8.8 70 -4  1017.5  1.5  758  311    -3.7  0.0     
18 23.10.20 260 (З) 4000 м  слаб. ливневой снег  10/10 600 м кучево-дожд. 
[Cb cap]
-3.8 -8.3 71 -5  1018.4  0.9  759  311           
21 23.10.20 130 (ЮВ) 10 км  в посл. час ливневой снег  10/8 600 м кучево-дожд., средняя 
[Cb cap|Ac trans]
-4.5 -6.9 83 -4  1018.8  0.4  759  312           
00 24.10.20 240 (ЮЗ) 4000 м  слаб. ливневой снег  10/10 600 м кучево-дожд. 
[Cb cap]
-4.4 -5.9 89 -6  1019.5  0.7  760  312           
03 24.10.20 220 (ЮЗ) 4000 м  слаб. ливневой снег  10/10 600 м кучево-дожд. 
[Cb cap]
-4.2 -3.8 100 -5  1020.1  0.6  760  312  -4.5    равномерный
сухой снег
100% 
06 24.10.20 210 (ЮЗ) 20000 м  {ливн. осадки}  3/1 600 м средняя 
[Sc|Ac trans]
-2 -8.5 61 -4  1020.3  0.2  761  310           
09 24.10.20 170 (Ю) 20000 м    5/3 600 м верхняя 
[Sc|Ci fib]
-0.7 -8.8 54 -3  1018.7  -1.5  759  308           
12 24.10.20 150 (ЮВ) 20000 м    6/0 верхняя 
[Ci sp]
-2.5 -9.2 60 -5  1017.4  -1.4  758  309           
15 24.10.20 140 (ЮВ) 10 км    10/0 средняя, верхняя 
[Ac und|Ci sp]
-2.7 -8.5 64 -7  1015.4  -2  757  309    -0.7  0.0     
18 24.10.20 130 (ЮВ) 5{10}  4000 м  слаб. ливневой снег  10/6 600 м кучево-дожд., средняя 
[Cb cap|Ac und]
-3.3 -5.4 85 -7  1012.5  -2.9  755  308           
21 24.10.20 130 (ЮВ) 4000 м  слаб. ливневой снег  10/8 600 м кучево-дожд., средняя 
[Cb cap|Ac und]
-2.1 -4.2 86 -6  1009.3  -3.1  752  306           
00 25.10.20 130 (ЮВ) 4000 м  слаб. ливневой снег  10/10 600 м кучево-дожд. 
[Cb cap]
-1.2 -3.2 86 -4  1007  -2.3  751  304           
03 25.10.20 130 (ЮВ) 10 км  слаб. ливневой снег  10/10 300 м кучево-дожд. 
[Cb cap]
-0.9 -2.3 90 -3  1006.2  -0.8  750  303  -3.5    0.8  равномерный
сухой снег
100% 
06 25.10.20 140 (ЮВ) 20000 м  {ливн. осадки}  10/10 300 м 
[Sc]
+0.3 -1.6 87 -1  1005.7  -0.4  750  302           
09 25.10.20 150 (ЮВ) 10 км  слаб. снег  10/10 300 м 
[Frnb|Ns]
+0.8 -0.7 90 1005.5  -0.2  750  301           
12 25.10.20 160 (Ю) 4000 м  слаб. снег  10/10 300 м 
[Frnb|Ns]
+0.7 -0.2 94 +1  1006.1  0.6  750  301           
15 25.10.20 220 (ЮЗ) 10 км  {снег}  10/10 300 м 
[St]
+0.9 +0.1 94 1006.7  0.5  750  301    +0.9     
18 25.10.20 250 (З) 10 км  {снег}  10/10 300 м 
[Sc]
+1.5 +0.7 94 +2  1007  0.4  751  301           
21 25.10.20 230 (ЮЗ) 10 км    10/10 600 м 
[Sc]
+1.3 +0.5 94 +2  1007.1  0.1  751  301           
Время (UTC), дата Ветер
(°,м/с) 
Видим.   Явления Облачность Т
(°С)
Тd
(°С)
f(%) Тe
(°С)
Pmin
(гПа)
dP
(гПа)
Po
(мм)
O2
(г/м3)
Тmin Tmax R s Состояние
почвы

Для получения пояснительной информации подведите курсор к названию столбца.

ПОГОДА в Тобольске - архив

Всё, что Вы хотите узнать о погоде в Тобольске - удобно и подробно!

Выберите нужную дату (начиная с 1 января 2019* года) и нажмите кнопку "Найти".
Будут отображены архивные сводки погоды по пункту Тобольск, начиная с указанной даты.


Отображать данные в формате CSV (для использования в таблицах Excel)


Внимание! Наш архив погоды предназначен исключительно для личного некоммерческого использования в познавательных целях. Если Вам необходимы официальные справки о состоянии погоды (для производственных, юридических, коммерческих и т.п. целей), обращайтесь в органы Росгидромета.

*Примечание: данная дата относится к архиву по метеостанциям СССР (Россия, СНГ, Балтия).
Архив по метеостанциям Зарубежной Европы и Азии (кроме Китая) хранится 10 дней, по другим регионам земного шара (Китай, Африка, Америка, Австралия, Океания) - 1 день.

Тобольск - район местоположения метеостанции


Название, широта, долгота, высота метеостанции:
Тобольск 58.2°ш. 68.2°д. 50 м над ур. моря [Российская Федерация]

Дополнительная информация

В oтличие oт бoльшинства пoгoдных сайтoв мы публикуем пoдрoбную метеoинфoрмацию в детальнoм прoфессиoнальнoм фoрмате.

Характеристики температуры и влажнoсти вoздуха измеряются на высoте 2 м в тени вдали oт зданий и деревьев.
Скoрoсть ветра измеряется на высoте 10 м (на урoвне рoста челoвека скoрoсть ветра ниже в 1.5-2 раза). Если метеoстанция нахoдится в гoрoде или в лесу, тo скoрoсть ветра занижена на 2-4 м/с пo сравнению с oткрытым местoм. Скoрoсть ветра над акватoриями крупных рек и oзёр, а также на вершинах хoлмoв на 2-5 м/с выше, чем в oбычных услoвиях.
Атмoсфернoе давление в разных тoчках местнoсти мoжет значительнo oтличаться oт давления на метеoстанции, в зависимoсти oт услoвий рельефа (при пoдъёме на 10 м давление пoнижается примернo на 1 мм рт.ст.).